Location: PACMO
(41.3967°N, 90.3760°W)
Time: 17:27:15
(UTC-05:00)

NOAA 19 - Visible Passes

Search period start: 04 July 2015 00:00
Search period end: 14 July 2015 00:00
Orbit: 842 x 863 km, 99.0° (Epoch: 04 July)

Date Brightness Start Highest point End Pass type
(mag) Time Alt. Az. Time Alt. Az. Time Alt. Az.
04 Jul 5.9 03:08:09 10° NNE 03:13:24 46° E 03:16:52 20° SSE visible
04 Jul 6.5 04:49:29 10° N 04:53:52 25° WNW 04:58:08 10° WSW visible
05 Jul 6.3 02:57:03 10° NNE 03:02:04 37° E 03:05:27 19° SSE visible
05 Jul 6.3 04:37:59 10° N 04:42:43 30° WNW 04:47:22 10° SW visible
06 Jul 6.7 02:46:02 10° NE 02:50:43 29° E 02:54:01 17° SE visible
06 Jul 6.0 04:26:32 10° N 04:31:32 37° WNW 04:36:04 12° SW visible
07 Jul 7.0 02:35:07 10° NE 02:39:21 23° E 02:42:35 15° SE visible
07 Jul 5.7 04:15:08 10° N 04:20:21 46° WNW 04:24:38 15° SW visible
08 Jul 7.3 02:24:19 10° NE 02:27:57 19° E 02:31:10 12° SE visible
08 Jul 5.4 04:03:46 10° N 04:09:09 58° WNW 04:13:12 18° SW visible
09 Jul 7.5 02:13:45 10° ENE 02:16:31 14° E 02:19:36 10° ESE visible
09 Jul 5.2 03:52:27 10° N 03:57:55 73° WNW 04:01:46 20° SSW visible
10 Jul 7.6 02:03:47 10° ENE 02:05:04 11° E 02:06:45 10° ESE visible
10 Jul 5.2 03:41:10 10° NNE 03:46:40 90° NE 03:50:20 22° SSW visible
11 Jul 5.3 03:29:57 10° NNE 03:35:25 73° ESE 03:38:54 23° S visible
12 Jul 5.6 03:18:45 10° NNE 03:24:08 57° E 03:27:28 23° S visible
12 Jul 6.7 05:00:29 10° NNW 05:04:29 20° WNW 05:08:19 10° WSW visible
13 Jul 6.0 03:07:36 10° NNE 03:12:50 45° E 03:16:02 22° SSE visible
13 Jul 6.5 04:48:54 10° N 04:53:20 25° WNW 04:57:39 10° WSW visible
